Doha, Qatar

11:52 AM +03 on January 21, 2018 (GMT +0300)
Doha International

Weather History for OTBD - August, 2013

Change the Weather History Date:

Wednesday, August 7, 2013

  Actual Average Record
Temperature  
Mean Temperature 96 °F -  
Max Temperature 102 °F 104 °F 114 °F (1998)
Min Temperature 89 °F 83 °F 87 °F (1996)
Cooling Degree Days 30    
Growing Degree Days 46 (Base 50)    
Moisture  
Dew Point 80 °F    
Average Humidity 67    
Maximum Humidity 89    
Minimum Humidity 35    
Precipitation  
Precipitation 0.00 in 0.00 in - ()
Sea Level Pressure  
Sea Level Pressure 29.52 in    
Wind  
Wind Speed 7 mph ()    
Max Wind Speed 14 mph    
Max Gust Speed -    
Visibility 6.2 miles    
Events      
Averages and records for this station are not official NWS values.
T = Trace of Precipitation, MM = Missing Value Source: Averaged Metar Reports

Daily Weather History Graph

Daily Weather History Graph

Search for Another Location

Airport or City:

Trip Planner

Search our weather history database for the weather conditions in past years. The results will help you decide how hot, cold, wet, or windy it might be!

Date:

Astronomy

Aug. 07, 2013 Rise Set
Actual Time 5:03 AM +03 6:14 PM +03
Civil Twilight 4:39 AM +03 6:39 PM +03
Nautical Twilight 4:10 AM +03 7:07 PM +03
Astronomical Twilight 3:40 AM +03 7:37 PM +03
Moon 5:20 AM +03 (8/7) 6:21 PM +03 (8/7)
Length of Visible Light 13h 59m
Length of Day
13h 11m
New Moon, 0% of the Moon is Illuminated
Aug 7
New Moon
Aug 14
First Quarter
Aug 21
Full
Aug 28
Last Quarter
Sep 5
New

Hourly Weather History & Observations

Time (+03) Temp. Heat Index Dew Point Humidity Pressure Visibility Wind Dir Wind Speed Gust Speed Precip Events Conditions
12:00 AM 91.4 °F 117.8 °F 84.2 °F 79% 29.50 in - NNE 6.9 mph - N/A   Clear
12:30 AM 89.6 °F 115.0 °F 84.2 °F 84% 29.50 in 6.2 mi North 5.8 mph - N/A   Partly Cloudy
1:00 AM 89.6 °F 115.0 °F 84.2 °F 84% 29.47 in 6.2 mi North 4.6 mph - N/A   Partly Cloudy
1:30 AM 89.6 °F 115.0 °F 84.2 °F 84% 29.47 in 6.2 mi North 5.8 mph - N/A   Partly Cloudy
2:00 AM 89.6 °F 119.2 °F 86.0 °F 89% 29.47 in 6.2 mi Variable 3.5 mph - N/A   Partly Cloudy
2:30 AM 89.6 °F 119.2 °F 86.0 °F 89% 29.47 in 6.2 mi NNE 5.8 mph - N/A   Partly Cloudy
3:00 AM 90 °F - 85 °F 82% 29.49 in 6 mi NNE 5.8 mph - -   Scattered Clouds
3:00 AM 89.6 °F 119.2 °F 86.0 °F 89% 29.47 in 6.2 mi NNE 5.8 mph - N/A   Partly Cloudy
3:30 AM 89.6 °F 115.0 °F 84.2 °F 84% 29.47 in 6.2 mi Variable 3.5 mph - N/A   Partly Cloudy
4:00 AM 89.6 °F 119.2 °F 86.0 °F 89% 29.47 in 6.2 mi Variable 2.3 mph - N/A   Partly Cloudy
4:30 AM 89.6 °F 119.2 °F 86.0 °F 89% 29.47 in 6.2 mi NNE 3.5 mph - N/A   Partly Cloudy
5:00 AM 89.6 °F 119.2 °F 86.0 °F 89% 29.50 in 5.6 mi North 4.6 mph - N/A   Partly Cloudy
5:30 AM 89.6 °F 119.2 °F 86.0 °F 89% 29.50 in 5.6 mi North 3.5 mph - N/A   Partly Cloudy
6:00 AM 89.6 °F 119.2 °F 86.0 °F 89% 29.50 in 6.2 mi North 4.6 mph - N/A   Scattered Clouds
6:30 AM 91.4 °F 117.8 °F 84.2 °F 79% 29.53 in 6.2 mi North 4.6 mph - N/A   Partly Cloudy
7:00 AM 91.4 °F 117.8 °F 84.2 °F 79% 29.53 in 6.2 mi North 5.8 mph - N/A   Partly Cloudy
8:00 AM 93.2 °F 120.9 °F 84.2 °F 75% 29.56 in 6.2 mi North 8.1 mph - N/A   Scattered Clouds
8:30 AM 93.2 °F 117.1 °F 82.4 °F 71% 29.56 in 6.2 mi NNW 6.9 mph - N/A   Partly Cloudy
9:00 AM 94 °F - 82 °F 62% 29.57 in 7 mi North 5.8 mph - -  
9:00 AM 95.0 °F 119.6 °F 82.4 °F 67% 29.56 in - North 5.8 mph - N/A   Clear
9:30 AM 96.8 °F 121.7 °F 82.4 °F 63% 29.56 in - North 9.2 mph - N/A   Clear
10:00 AM 98.6 °F 109.2 °F 73.4 °F 44% 29.56 in - North 10.4 mph - N/A   Clear
10:30 AM 98.6 °F 107.7 °F 71.6 °F 42% 29.56 in - North 10.4 mph - N/A   Clear
11:00 AM 100.4 °F 107.8 °F 69.8 °F 37% 29.56 in - North 10.4 mph - N/A   Clear
11:30 AM 100.4 °F 106.3 °F 68.0 °F 35% 29.53 in - NNE 9.2 mph - N/A   Clear
12:00 PM 100.4 °F 111.9 °F 73.4 °F 42% 29.53 in - North 10.4 mph - N/A   Clear
12:30 PM 102.2 °F 116.3 °F 75.2 °F 42% 29.53 in - NNE 11.5 mph - N/A   Clear
1:00 PM 100.4 °F 113.6 °F 75.2 °F 44% 29.53 in - NE 11.5 mph - N/A   Clear
1:30 PM 100.4 °F 111.9 °F 73.4 °F 42% 29.53 in - ENE 11.5 mph - N/A   Clear
2:00 PM 100.4 °F 109.3 °F 71.6 °F 39% 29.53 in - ENE 12.7 mph - N/A   Clear
2:30 PM 98.6 °F 111.7 °F 75.2 °F 47% 29.53 in - ENE 12.7 mph - N/A   Clear
3:00 PM 98 °F - 77 °F 41% 29.52 in 7 mi NE 11.5 mph - -  
3:00 PM 98.6 °F 114.4 °F 77.0 °F 50% 29.50 in - NE 11.5 mph - N/A   Clear
3:30 PM 98.6 °F 111.7 °F 75.2 °F 47% 29.50 in - NE 11.5 mph - N/A   Clear
4:00 PM 96.8 °F 109.6 °F 75.2 °F 50% 29.50 in - NE 11.5 mph - N/A   Clear
4:30 PM 96.8 °F 109.6 °F 75.2 °F 50% 29.50 in - NE 10.4 mph - N/A   Clear
5:00 PM 96.8 °F 109.6 °F 75.2 °F 50% 29.50 in - NNE 9.2 mph - N/A   Clear
5:30 PM 95.0 °F 115.8 °F 80.6 °F 63% 29.50 in - North 11.5 mph - N/A   Clear
6:00 PM 93.2 °F 113.6 °F 80.6 °F 67% 29.50 in - North 9.2 mph - N/A   Clear
6:30 PM 93.2 °F 117.1 °F 82.4 °F 71% 29.50 in - NNE 9.2 mph - N/A   Clear
7:00 PM 93.2 °F 117.1 °F 82.4 °F 71% 29.50 in - North 10.4 mph - N/A   Clear
7:30 PM 93.2 °F 117.1 °F 82.4 °F 71% 29.53 in - North 11.5 mph - N/A   Clear
8:00 PM 91.4 °F 114.3 °F 82.4 °F 75% 29.53 in - North 11.5 mph - N/A   Clear
8:30 PM 91.4 °F 114.3 °F 82.4 °F 75% 29.56 in - North 11.5 mph - N/A   Clear
9:00 PM 92 °F - 82 °F 67% 29.57 in 6 mi North 13.8 mph - -  
9:00 PM 91.4 °F 114.3 °F 82.4 °F 75% 29.56 in - North 13.8 mph - N/A   Clear
9:30 PM 91.4 °F 114.3 °F 82.4 °F 75% 29.56 in - North 12.7 mph - N/A   Clear
10:00 PM 91.4 °F 114.3 °F 82.4 °F 75% 29.56 in - North 11.5 mph - N/A   Clear
10:30 PM 91.4 °F 114.3 °F 82.4 °F 75% 29.56 in - North 11.5 mph - N/A   Clear
11:00 PM 91.4 °F 114.3 °F 82.4 °F 75% 29.53 in - North 10.4 mph - N/A   Clear